Time,TemperatureF,DewpointF,PressureIn,WindDirection,WindDirectionDegrees,WindSpeedMPH,WindSpeedGustMPH,Humidity,HourlyPrecipIn,Conditions,Clouds,dailyrainin,SolarRadiationWatts/m^2,SoftwareType,DateUTC
2013-02-09 00:00:00,40.6,22.4,29.68,ESE,123,5.0,5.0,48,0.00,,,0.00,0,Wunderground v.1.15,2013-02-09 07:00:00,
2013-02-09 00:09:00,40.6,22.4,29.69,SE,130,5.0,11.0,48,0.00,,,0.00,0,Wunderground v.1.15,2013-02-09 07:09:00,
2013-02-09 00:19:00,41.0,22.8,29.69,SSE,147,7.0,10.0,48,0.00,,,0.00,0,Wunderground v.1.15,2013-02-09 07:19:00,
2013-02-09 00:30:00,41.1,22.9,29.68,East,97,6.0,6.0,48,0.00,,,0.00,0,Wunderground v.1.15,2013-02-09 07:30:00,
2013-02-09 00:40:00,41.1,23.4,29.68,ESE,113,7.0,7.0,49,0.00,,,0.00,0,Wunderground v.1.15,2013-02-09 07:40:00,
2013-02-09 00:50:00,41.0,23.8,29.68,ESE,111,6.0,6.0,50,0.00,,,0.00,0,Wunderground v.1.15,2013-02-09 07:50:00,
2013-02-09 00:59:00,41.1,24.3,29.68,SE,135,3.0,3.0,51,0.00,,,0.00,0,Wunderground v.1.15,2013-02-09 07:59:00,
2013-02-09 01:00:00,41.1,24.3,29.68,ESE,112,5.0,12.0,51,0.00,,,-99.99,0,WeatherLink 5.9.3,2013-02-09 08:00:00,
2013-02-09 01:10:00,41.1,24.3,29.69,SSE,157,3.0,3.0,51,0.00,,,0.00,0,Wunderground v.1.15,2013-02-09 08:10:00,
2013-02-09 01:20:00,41.1,24.3,29.68,SSE,157,1.0,4.0,51,0.00,,,0.00,0,Wunderground v.1.15,2013-02-09 08:20:00,
2013-02-09 01:30:00,41.1,24.8,29.68,SE,128,3.0,3.0,52,0.00,,,0.00,0,Wunderground v.1.15,2013-02-09 08:30:00,
2013-02-09 01:39:00,41.2,24.9,29.68,SE,127,5.0,5.0,52,0.00,,,0.00,0,Wunderground v.1.15,2013-02-09 08:39:00,
2013-02-09 01:49:00,41.2,25.3,29.68,SE,136,9.0,9.0,53,0.00,,,0.00,0,Wunderground v.1.15,2013-02-09 08:49:00,
2013-02-09 02:00:00,40.9,26.0,29.67,ESE,109,7.0,14.0,55,0.00,,,0.00,0,Wunderground v.1.15,2013-02-09 09:00:00,
2013-02-09 02:10:00,40.5,26.4,29.67,SE,126,11.0,11.0,57,0.00,,,0.00,0,Wunderground v.1.15,2013-02-09 09:10:00,
2013-02-09 02:20:00,40.1,26.9,29.67,ESE,117,10.0,10.0,59,0.00,,,0.00,0,Wunderground v.1.15,2013-02-09 09:20:00,
2013-02-09 02:29:00,39.7,27.7,29.67,SE,128,10.0,10.0,62,0.00,,,0.00,0,Wunderground v.1.15,2013-02-09 09:29:00,
2013-02-09 02:30:00,39.3,28.1,29.66,ESE,112,10.0,18.0,64,0.00,,,-99.99,0,WeatherLink 5.9.3,2013-02-09 09:30:00,
2013-02-09 02:39:00,39.1,28.3,29.67,SSW,200,7.0,13.0,65,0.00,,,0.00,0,Wunderground v.1.15,2013-02-09 09:39:00,
2013-02-09 02:49:00,38.2,29.3,29.69,SSW,213,8.0,8.0,70,0.00,,,0.00,0,Wunderground v.1.15,2013-02-09 09:49:00,
2013-02-09 03:00:00,36.9,29.1,29.70,WSW,238,7.0,8.0,73,0.09,,,0.02,0,Wunderground v.1.15,2013-02-09 10:00:00,
2013-02-09 03:10:00,35.6,28.5,29.70,SSW,202,3.0,3.0,75,0.05,,,0.02,0,Wunderground v.1.15,2013-02-09 10:10:00,
2013-02-09 03:19:00,34.7,27.9,29.69,SSW,202,0.0,0.0,76,0.00,,,0.02,0,Wunderground v.1.15,2013-02-09 10:19:00,
2013-02-09 03:29:00,34.1,28.3,29.69,SSW,199,1.0,1.0,79,0.00,,,0.02,0,Wunderground v.1.15,2013-02-09 10:29:00,
2013-02-09 03:30:00,33.9,28.4,29.68,SSW,202,1.0,6.0,80,0.02,,,-99.99,0,WeatherLink 5.9.3,2013-02-09 10:30:00,
2013-02-09 03:40:00,33.8,28.6,29.68,East,90,3.0,3.0,81,0.00,,,0.02,0,Wunderground v.1.15,2013-02-09 10:40:00,
2013-02-09 03:50:00,33.9,29.0,29.69,East,91,4.0,4.0,82,0.00,,,0.02,0,Wunderground v.1.15,2013-02-09 10:50:00,
2013-02-09 04:00:00,33.8,28.9,29.68,ESE,105,4.0,4.0,82,0.00,,,0.03,0,Wunderground v.1.15,2013-02-09 11:00:00,
2013-02-09 04:09:00,33.9,29.3,29.68,East,100,4.0,7.0,83,0.00,,,0.03,0,Wunderground v.1.15,2013-02-09 11:09:00,
2013-02-09 04:19:00,33.8,29.2,29.68,ESE,107,6.0,9.0,83,0.00,,,0.03,0,Wunderground v.1.15,2013-02-09 11:19:00,
2013-02-09 04:29:00,33.5,28.9,29.68,ESE,111,9.0,11.0,83,0.00,,,0.03,0,Wunderground v.1.15,2013-02-09 11:29:00,
2013-02-09 04:30:00,33.5,28.9,29.68,ESE,112,7.0,14.0,83,0.01,,,-99.99,0,WeatherLink 5.9.3,2013-02-09 11:30:00,
2013-02-09 04:40:00,33.4,28.8,29.68,East,94,8.0,12.0,83,0.00,,,0.03,0,Wunderground v.1.15,2013-02-09 11:40:00,
2013-02-09 04:50:00,33.4,29.1,29.68,ESE,115,8.0,8.0,84,0.00,,,0.03,0,Wunderground v.1.15,2013-02-09 11:50:00,
2013-02-09 05:00:00,33.4,28.8,29.68,ESE,111,9.0,9.0,83,0.00,,,0.03,0,Wunderground v.1.15,2013-02-09 12:00:00,
2013-02-09 05:09:00,33.3,28.7,29.69,East,99,6.0,6.0,83,0.00,,,0.03,0,Wunderground v.1.15,2013-02-09 12:09:00,
2013-02-09 05:19:00,33.1,28.5,29.69,SE,145,3.0,3.0,83,0.00,,,0.03,0,Wunderground v.1.15,2013-02-09 12:19:00,
2013-02-09 05:30:00,32.9,28.0,29.70,SE,145,0.0,0.0,82,0.00,,,0.03,0,Wunderground v.1.15,2013-02-09 12:30:00,
2013-02-09 05:39:00,32.8,27.9,29.70,SE,145,0.0,1.0,82,0.00,,,0.03,0,Wunderground v.1.15,2013-02-09 12:39:00,
2013-02-09 05:49:00,32.8,27.9,29.70,SE,145,0.0,2.0,82,0.00,,,0.03,0,Wunderground v.1.15,2013-02-09 12:49:00,
2013-02-09 05:59:00,32.8,28.2,29.70,SE,145,1.0,1.0,83,0.00,,,0.03,0,Wunderground v.1.15,2013-02-09 12:59:00,
2013-02-09 06:00:00,32.8,27.9,29.70,SE,135,1.0,6.0,82,0.00,,,-99.99,0,WeatherLink 5.9.3,2013-02-09 13:00:00,
2013-02-09 06:10:00,32.8,27.9,29.70,SE,145,0.0,2.0,82,0.00,,,0.03,0,Wunderground v.1.15,2013-02-09 13:10:00,
2013-02-09 06:19:00,32.8,27.9,29.71,SSE,147,3.0,4.0,82,0.00,,,0.03,0,Wunderground v.1.15,2013-02-09 13:19:00,
2013-02-09 06:29:00,33.0,28.1,29.71,SSE,150,4.0,5.0,82,0.00,,,0.03,0,Wunderground v.1.15,2013-02-09 13:29:00,
2013-02-09 06:30:00,33.0,27.8,29.71,SE,135,3.0,7.0,81,0.00,,,-99.99,0,WeatherLink 5.9.3,2013-02-09 13:30:00,
2013-02-09 06:39:00,33.1,27.9,29.71,SSE,152,3.0,3.0,81,0.00,,,0.03,0,Wunderground v.1.15,2013-02-09 13:39:00,
2013-02-09 06:50:00,33.0,27.8,29.71,SSE,162,4.0,5.0,81,0.00,,,0.03,0,Wunderground v.1.15,2013-02-09 13:50:00,
2013-02-09 07:00:00,33.0,27.8,29.71,SSE,160,5.0,6.0,81,0.00,,,0.03,0,Wunderground v.1.15,2013-02-09 14:00:00,
2013-02-09 07:10:00,33.1,27.6,29.72,SSE,155,4.0,4.0,80,0.00,,,0.03,0,Wunderground v.1.15,2013-02-09 14:10:00,
2013-02-09 07:19:00,33.2,27.7,29.72,SSE,155,4.0,4.0,80,0.00,,,0.03,0,Wunderground v.1.15,2013-02-09 14:19:00,
2013-02-09 07:29:00,33.4,27.9,29.73,SSE,147,4.0,6.0,80,0.00,,,0.03,16,Wunderground v.1.15,2013-02-09 14:29:00,
2013-02-09 07:30:00,33.5,28.0,29.73,SSE,157,4.0,11.0,80,0.00,,,-99.99,5,WeatherLink 5.9.3,2013-02-09 14:30:00,
2013-02-09 07:40:00,33.5,28.0,29.73,SSE,155,6.0,6.0,80,0.00,,,0.03,46,Wunderground v.1.15,2013-02-09 14:40:00,
2013-02-09 07:50:00,33.5,28.0,29.73,SSE,150,6.0,6.0,80,0.00,,,0.03,74,Wunderground v.1.15,2013-02-09 14:50:00,
2013-02-09 08:00:00,34.3,28.8,29.73,SSE,155,5.0,7.0,80,0.00,,,0.03,174,Wunderground v.1.15,2013-02-09 15:00:00,
2013-02-09 08:10:00,35.2,29.0,29.74,SSE,167,6.0,6.0,78,0.00,,,0.04,40,Wunderground v.1.15,2013-02-09 15:10:00,
2013-02-09 08:19:00,34.9,28.1,29.74,South,171,6.0,6.0,76,0.00,,,0.04,49,Wunderground v.1.15,2013-02-09 15:19:00,
2013-02-09 08:29:00,34.6,27.8,29.75,SE,142,5.0,5.0,76,0.00,,,0.04,58,Wunderground v.1.15,2013-02-09 15:29:00,
2013-02-09 08:30:00,34.6,27.8,29.75,SSE,157,5.0,13.0,76,0.01,,,-99.99,62,WeatherLink 5.9.3,2013-02-09 15:30:00,
2013-02-09 08:39:00,34.8,28.0,29.76,SSE,155,4.0,4.0,76,0.00,,,0.04,125,Wunderground v.1.15,2013-02-09 15:39:00,
2013-02-09 08:50:00,35.1,28.3,29.76,SSE,156,3.0,4.0,76,0.00,,,0.05,74,Wunderground v.1.15,2013-02-09 15:50:00,
2013-02-09 08:59:00,35.2,28.4,29.77,SSE,155,3.0,3.0,76,0.00,,,0.05,88,Wunderground v.1.15,2013-02-09 15:59:00,
2013-02-09 09:00:00,35.1,28.3,29.77,SSE,157,3.0,9.0,76,0.02,,,-99.99,93,WeatherLink 5.9.3,2013-02-09 16:00:00,
2013-02-09 09:09:00,35.1,28.3,29.78,SSE,153,3.0,3.0,76,0.00,,,0.05,91,Wunderground v.1.15,2013-02-09 16:09:00,
2013-02-09 09:19:00,35.3,28.5,29.78,SSE,154,1.0,1.0,76,0.00,,,0.05,72,Wunderground v.1.15,2013-02-09 16:19:00,
2013-02-09 09:30:00,35.5,28.7,29.78,SSE,153,1.0,1.0,76,0.00,,,0.05,56,Wunderground v.1.15,2013-02-09 16:30:00,
2013-02-09 09:40:00,35.6,28.5,29.79,SSE,161,2.0,3.0,75,0.00,,,0.05,65,Wunderground v.1.15,2013-02-09 16:40:00,
2013-02-09 09:49:00,35.4,28.6,29.80,SSE,161,1.0,1.0,76,0.00,,,0.05,33,Wunderground v.1.15,2013-02-09 16:49:00,
2013-02-09 09:59:00,35.0,28.2,29.80,SSE,161,1.0,1.0,76,0.00,,,0.05,62,Wunderground v.1.15,2013-02-09 16:59:00,
2013-02-09 10:00:00,34.9,28.4,29.80,SSE,157,1.0,6.0,77,0.00,,,-99.99,55,WeatherLink 5.9.3,2013-02-09 17:00:00,
2013-02-09 10:09:00,34.8,28.3,29.80,SSE,161,0.0,0.0,77,0.00,,,0.05,109,Wunderground v.1.15,2013-02-09 17:09:00,
2013-02-09 10:20:00,34.4,28.6,29.81,SSE,161,0.0,0.0,79,0.00,,,0.05,107,Wunderground v.1.15,2013-02-09 17:20:00,
2013-02-09 10:30:00,34.4,29.2,29.81,SSE,160,2.0,3.0,81,0.00,,,0.05,216,Wunderground v.1.15,2013-02-09 17:30:00,
2013-02-09 10:40:00,35.2,30.3,29.82,SE,127,3.0,4.0,82,0.00,,,0.05,264,Wunderground v.1.15,2013-02-09 17:40:00,
2013-02-09 10:50:00,36.6,31.9,29.82,SE,132,5.0,7.0,83,0.04,,,0.06,617,Wunderground v.1.15,2013-02-09 17:50:00,
2013-02-09 11:00:00,37.3,32.0,29.82,SE,138,5.0,5.0,81,0.04,,,0.06,243,Wunderground v.1.15,2013-02-09 18:00:00,
2013-02-09 11:10:00,37.3,31.1,29.82,SSE,161,5.0,5.0,78,0.00,,,0.06,188,Wunderground v.1.15,2013-02-09 18:10:00,
2013-02-09 11:19:00,38.0,31.1,29.82,SSE,155,5.0,6.0,76,0.00,,,0.06,218,Wunderground v.1.15,2013-02-09 18:19:00,
2013-02-09 11:29:00,38.4,30.2,29.82,SSE,163,6.0,6.0,72,0.00,,,0.06,202,Wunderground v.1.15,2013-02-09 18:29:00,
2013-02-09 11:30:00,38.8,29.8,29.82,SSE,157,5.0,11.0,70,0.01,,,-99.99,209,WeatherLink 5.9.3,2013-02-09 18:30:00,
2013-02-09 11:40:00,39.3,30.3,29.82,SSE,148,7.0,7.0,70,0.00,,,0.06,538,Wunderground v.1.15,2013-02-09 18:40:00,
2013-02-09 11:50:00,41.7,31.5,29.82,South,180,6.0,6.0,67,0.00,,,0.06,745,Wunderground v.1.15,2013-02-09 18:50:00,
2013-02-09 12:00:00,42.5,31.6,29.82,WSW,250,6.0,7.0,65,0.00,,,0.06,274,Wunderground v.1.15,2013-02-09 19:00:00,
2013-02-09 12:10:00,42.1,30.8,29.82,South,178,7.0,7.0,64,0.00,,,0.06,294,Wunderground v.1.15,2013-02-09 19:10:00,
2013-02-09 12:19:00,41.3,30.4,29.83,South,179,6.0,9.0,65,0.00,,,0.06,290,Wunderground v.1.15,2013-02-09 19:19:00,
2013-02-09 12:29:00,40.8,31.1,29.83,SSE,149,5.0,5.0,68,0.00,,,0.06,436,Wunderground v.1.15,2013-02-09 19:29:00,
2013-02-09 12:30:00,41.1,31.3,29.83,SSW,202,5.0,15.0,68,0.00,,,-99.99,318,WeatherLink 5.9.3,2013-02-09 19:30:00,
2013-02-09 12:40:00,41.5,31.0,29.83,SW,227,3.0,3.0,66,0.00,,,0.06,260,Wunderground v.1.15,2013-02-09 19:40:00,
2013-02-09 12:49:00,41.1,30.6,29.83,South,181,4.0,4.0,66,0.00,,,0.06,200,Wunderground v.1.15,2013-02-09 19:49:00,
2013-02-09 12:59:00,40.8,30.3,29.83,South,174,2.0,2.0,66,0.00,,,0.06,153,Wunderground v.1.15,2013-02-09 19:59:00,
2013-02-09 13:00:00,40.8,30.3,29.83,South,180,2.0,10.0,66,0.00,,,-99.99,203,WeatherLink 5.9.3,2013-02-09 20:00:00,
2013-02-09 13:09:00,40.7,30.2,29.83,SSE,154,1.0,1.0,66,0.00,,,0.06,134,Wunderground v.1.15,2013-02-09 20:09:00,
2013-02-09 13:20:00,40.5,29.7,29.83,SSW,204,3.0,3.0,65,0.00,,,0.06,190,Wunderground v.1.15,2013-02-09 20:20:00,
2013-02-09 13:30:00,40.7,29.5,29.83,SSW,200,2.0,2.0,64,0.00,,,0.06,142,Wunderground v.1.15,2013-02-09 20:30:00,
2013-02-09 13:39:00,40.7,28.7,29.83,South,169,4.0,4.0,62,0.00,,,0.06,197,Wunderground v.1.15,2013-02-09 20:39:00,
2013-02-09 13:49:00,40.2,29.0,29.83,SE,125,6.0,6.0,64,0.00,,,0.06,181,Wunderground v.1.15,2013-02-09 20:49:00,
2013-02-09 13:59:00,39.8,28.6,29.84,SSE,153,7.0,7.0,64,0.00,,,0.06,148,Wunderground v.1.15,2013-02-09 20:59:00,
2013-02-09 14:00:00,39.7,28.9,29.84,SSE,157,6.0,15.0,65,0.00,,,-99.99,172,WeatherLink 5.9.3,2013-02-09 21:00:00,
2013-02-09 14:09:00,39.6,28.8,29.84,SSE,159,6.0,13.0,65,0.00,,,0.06,169,Wunderground v.1.15,2013-02-09 21:09:00,
2013-02-09 14:19:00,40.3,29.1,29.84,SSE,162,5.0,5.0,64,0.00,,,0.06,211,Wunderground v.1.15,2013-02-09 21:19:00,
2013-02-09 14:30:00,41.0,30.5,29.84,SE,145,4.0,4.0,66,0.00,,,0.06,225,Wunderground v.1.15,2013-02-09 21:30:00,
2013-02-09 14:40:00,41.0,28.6,29.85,SSE,154,7.0,7.0,61,0.00,,,0.06,148,Wunderground v.1.15,2013-02-09 21:40:00,
2013-02-09 14:49:00,39.8,29.7,29.85,SE,142,8.0,8.0,67,0.00,,,0.06,229,Wunderground v.1.15,2013-02-09 21:49:00,
2013-02-09 14:59:00,39.8,31.2,29.85,SSE,167,5.0,5.0,71,0.00,,,0.06,330,Wunderground v.1.15,2013-02-09 21:59:00,
2013-02-09 15:00:00,40.0,31.0,29.85,SSE,157,7.0,16.0,70,0.00,,,-99.99,230,WeatherLink 5.9.3,2013-02-09 22:00:00,
2013-02-09 15:09:00,40.2,30.8,29.85,SE,133,6.0,6.0,69,0.00,,,0.06,209,Wunderground v.1.15,2013-02-09 22:09:00,
2013-02-09 15:20:00,40.5,30.4,29.85,SSE,155,5.0,5.0,67,0.00,,,0.06,192,Wunderground v.1.15,2013-02-09 22:20:00,
2013-02-09 15:30:00,41.3,30.4,29.86,SSE,162,5.0,7.0,65,0.00,,,0.06,250,Wunderground v.1.15,2013-02-09 22:30:00,
2013-02-09 15:40:00,41.2,29.9,29.86,SE,144,8.0,9.0,64,0.00,,,0.06,192,Wunderground v.1.15,2013-02-09 22:40:00,
2013-02-09 15:49:00,41.2,29.5,29.86,SSW,201,6.0,6.0,63,0.00,,,0.06,123,Wunderground v.1.15,2013-02-09 22:49:00,
2013-02-09 15:59:00,41.2,29.2,29.87,SSW,194,6.0,6.0,62,0.00,,,0.06,121,Wunderground v.1.15,2013-02-09 22:59:00,
2013-02-09 16:00:00,41.2,29.5,29.87,SSW,202,6.0,15.0,63,0.00,,,-99.99,140,WeatherLink 5.9.3,2013-02-09 23:00:00,
2013-02-09 16:09:00,41.1,29.5,29.87,South,182,5.0,6.0,63,0.00,,,0.06,95,Wunderground v.1.15,2013-02-09 23:09:00,
2013-02-09 16:20:00,40.7,29.8,29.88,SW,217,4.0,4.0,65,0.00,,,0.06,125,Wunderground v.1.15,2013-02-09 23:20:00,
2013-02-09 16:30:00,40.9,30.0,29.88,SSE,160,5.0,5.0,65,0.00,,,0.06,156,Wunderground v.1.15,2013-02-09 23:30:00,
2013-02-09 16:40:00,40.5,29.7,29.89,SSW,210,7.0,9.0,65,0.00,,,0.06,120,Wunderground v.1.15,2013-02-09 23:40:00,
2013-02-09 16:50:00,39.7,30.0,29.89,SSW,192,6.0,6.0,68,0.00,,,0.06,111,Wunderground v.1.15,2013-02-09 23:50:00,
2013-02-09 16:59:00,39.5,30.2,29.90,SSE,160,6.0,7.0,69,0.00,,,0.06,86,Wunderground v.1.15,2013-02-09 23:59:00,
2013-02-09 17:00:00,39.5,29.8,29.90,SSE,157,6.0,17.0,68,0.00,,,-99.99,106,WeatherLink 5.9.3,2013-02-10 00:00:00,
2013-02-09 17:09:00,39.5,29.8,29.90,SE,136,7.0,7.0,68,0.00,,,0.06,62,Wunderground v.1.15,2013-02-10 00:09:00,
2013-02-09 17:19:00,39.7,29.6,29.90,SE,144,7.0,7.0,67,0.00,,,0.06,42,Wunderground v.1.15,2013-02-10 00:19:00,
2013-02-09 17:30:00,39.6,29.5,29.90,SE,146,6.0,6.0,67,0.00,,,0.06,23,Wunderground v.1.15,2013-02-10 00:30:00,
2013-02-09 17:40:00,39.3,29.6,29.90,SSE,167,8.0,8.0,68,0.00,,,0.06,19,Wunderground v.1.15,2013-02-10 00:40:00,
2013-02-09 17:50:00,38.9,29.6,29.91,SSE,161,5.0,5.0,69,0.00,,,0.06,14,Wunderground v.1.15,2013-02-10 00:50:00,
2013-02-09 17:59:00,38.7,29.8,29.92,SE,141,4.0,4.0,70,0.00,,,0.06,5,Wunderground v.1.15,2013-02-10 00:59:00,
2013-02-09 18:00:00,38.6,29.7,29.92,SSE,157,4.0,13.0,70,0.00,,,-99.99,12,WeatherLink 5.9.3,2013-02-10 01:00:00,
2013-02-09 18:10:00,38.5,29.6,29.91,SE,134,4.0,4.0,70,0.00,,,0.06,0,Wunderground v.1.15,2013-02-10 01:10:00,
2013-02-09 18:20:00,38.3,29.4,29.92,SE,141,3.0,4.0,70,0.00,,,0.06,0,Wunderground v.1.15,2013-02-10 01:20:00,
2013-02-09 18:29:00,38.1,29.5,29.92,SSE,154,4.0,4.0,71,0.00,,,0.06,0,Wunderground v.1.15,2013-02-10 01:29:00,
2013-02-09 18:30:00,38.0,29.4,29.92,SE,135,4.0,7.0,71,0.00,,,-99.99,0,WeatherLink 5.9.3,2013-02-10 01:30:00,
2013-02-09 18:39:00,38.1,29.5,29.93,SE,138,5.0,5.0,71,0.00,,,0.06,0,Wunderground v.1.15,2013-02-10 01:39:00,
2013-02-09 18:50:00,38.1,29.2,29.93,SE,140,4.0,4.0,70,0.00,,,0.06,0,Wunderground v.1.15,2013-02-10 01:50:00,
2013-02-09 19:00:00,38.1,29.2,29.93,SSE,148,3.0,3.0,70,0.00,,,0.06,0,Wunderground v.1.15,2013-02-10 02:00:00,
2013-02-09 19:10:00,38.3,29.0,29.93,SSE,150,3.0,3.0,69,0.00,,,0.06,0,Wunderground v.1.15,2013-02-10 02:10:00,
2013-02-09 19:20:00,38.4,28.8,29.94,SSE,151,3.0,3.0,68,0.00,,,0.06,0,Wunderground v.1.15,2013-02-10 02:20:00,
2013-02-09 19:29:00,38.5,28.1,29.94,SSE,152,3.0,3.0,66,0.00,,,0.06,0,Wunderground v.1.15,2013-02-10 02:29:00,
2013-02-09 19:30:00,38.6,28.6,29.95,SSE,157,2.0,7.0,67,0.00,,,-99.99,0,WeatherLink 5.9.3,2013-02-10 02:30:00,
2013-02-09 19:40:00,38.6,28.6,29.95,SSE,153,1.0,1.0,67,0.00,,,0.06,0,Wunderground v.1.15,2013-02-10 02:40:00,
2013-02-09 19:50:00,38.6,28.6,29.95,SSE,153,0.0,0.0,67,0.00,,,0.06,0,Wunderground v.1.15,2013-02-10 02:50:00,
2013-02-09 19:59:00,38.5,28.1,29.95,SSE,149,1.0,1.0,66,0.00,,,0.06,0,Wunderground v.1.15,2013-02-10 02:59:00,
2013-02-09 20:00:00,38.4,28.0,29.95,SSE,157,0.0,5.0,66,0.00,,,-99.99,0,WeatherLink 5.9.3,2013-02-10 03:00:00,
2013-02-09 20:09:00,38.4,28.4,29.95,SSE,150,0.0,0.0,67,0.00,,,0.06,0,Wunderground v.1.15,2013-02-10 03:09:00,
2013-02-09 20:20:00,38.2,28.2,29.95,SSE,149,0.0,0.0,67,0.00,,,0.06,0,Wunderground v.1.15,2013-02-10 03:20:00,
2013-02-09 20:30:00,38.3,27.9,29.96,ESE,117,2.0,2.0,66,0.00,,,0.06,0,Wunderground v.1.15,2013-02-10 03:30:00,
2013-02-09 20:40:00,38.2,27.8,29.95,ESE,119,2.0,5.0,66,0.00,,,0.06,0,Wunderground v.1.15,2013-02-10 03:40:00,
2013-02-09 20:50:00,38.1,28.1,29.96,ESE,121,3.0,3.0,67,0.00,,,0.06,0,Wunderground v.1.15,2013-02-10 03:50:00,
2013-02-09 20:59:00,38.0,28.0,29.97,ESE,121,0.0,0.0,67,0.00,,,0.06,0,Wunderground v.1.15,2013-02-10 03:59:00,
2013-02-09 21:00:00,37.9,28.3,29.97,ESE,112,2.0,7.0,68,0.00,,,-99.99,0,WeatherLink 5.9.3,2013-02-10 04:00:00,
2013-02-09 21:09:00,37.8,28.5,29.97,East,87,2.0,3.0,69,0.00,,,0.06,0,Wunderground v.1.15,2013-02-10 04:09:00,
2013-02-09 21:19:00,37.7,28.4,29.97,East,80,3.0,3.0,69,0.00,,,0.06,0,Wunderground v.1.15,2013-02-10 04:19:00,
2013-02-09 21:29:00,37.8,28.2,29.97,East,81,1.0,1.0,68,0.00,,,0.06,0,Wunderground v.1.15,2013-02-10 04:29:00,
2013-02-09 21:30:00,37.7,28.1,29.97,East,90,2.0,6.0,68,0.00,,,-99.99,0,WeatherLink 5.9.3,2013-02-10 04:30:00,
2013-02-09 21:40:00,37.7,28.1,29.98,East,81,0.0,2.0,68,0.00,,,0.06,0,Wunderground v.1.15,2013-02-10 04:40:00,
2013-02-09 21:50:00,37.7,28.1,29.98,East,84,2.0,4.0,68,0.00,,,0.06,0,Wunderground v.1.15,2013-02-10 04:50:00,
2013-02-09 22:00:00,37.7,28.1,29.98,East,86,1.0,1.0,68,0.00,,,0.06,0,Wunderground v.1.15,2013-02-10 05:00:00,
2013-02-09 22:09:00,37.5,28.2,29.99,East,86,0.0,0.0,69,0.00,,,0.06,0,Wunderground v.1.15,2013-02-10 05:09:00,
2013-02-09 22:19:00,37.2,28.3,29.99,East,86,2.0,2.0,70,0.00,,,0.06,0,Wunderground v.1.15,2013-02-10 05:19:00,
2013-02-09 22:30:00,37.2,28.3,29.99,East,94,4.0,4.0,70,0.00,,,0.06,0,Wunderground v.1.15,2013-02-10 05:30:00,
2013-02-09 22:39:00,37.1,28.2,29.99,East,95,3.0,3.0,70,0.00,,,0.06,0,Wunderground v.1.15,2013-02-10 05:39:00,
2013-02-09 22:49:00,36.7,28.2,29.99,East,95,2.0,3.0,71,0.00,,,0.06,0,Wunderground v.1.15,2013-02-10 05:49:00,
2013-02-09 22:59:00,36.4,27.9,29.99,East,91,2.0,2.0,71,0.00,,,0.06,0,Wunderground v.1.15,2013-02-10 05:59:00,
2013-02-09 23:00:00,36.2,27.7,29.99,East,90,2.0,7.0,71,0.00,,,-99.99,0,WeatherLink 5.9.3,2013-02-10 06:00:00,
2013-02-09 23:09:00,36.1,27.6,29.99,East,92,0.0,0.0,71,0.00,,,0.06,0,Wunderground v.1.15,2013-02-10 06:09:00,
2013-02-09 23:19:00,35.9,27.4,29.99,East,92,0.0,0.0,71,0.00,,,0.06,0,Wunderground v.1.15,2013-02-10 06:19:00,
2013-02-09 23:29:00,35.7,27.2,29.99,East,91,0.0,0.0,71,0.00,,,0.06,0,Wunderground v.1.15,2013-02-10 06:29:00,
2013-02-09 23:30:00,35.4,27.3,29.99,East,90,0.0,3.0,72,0.00,,,-99.99,0,WeatherLink 5.9.3,2013-02-10 06:30:00,
2013-02-09 23:40:00,35.3,27.2,30.00,East,91,0.0,0.0,72,0.00,,,0.06,0,Wunderground v.1.15,2013-02-10 06:40:00,
2013-02-09 23:50:00,35.0,26.9,30.00,East,91,0.0,0.0,72,0.00,,,0.06,0,Wunderground v.1.15,2013-02-10 06:50:00,
2013-02-09 23:59:00,34.9,27.1,30.00,East,92,0.0,0.0,73,0.00,,,0.06,0,Wunderground v.1.15,2013-02-10 06:59:00,